Regional Weather Roundup
Issued by NWS

Home | Current Version | Previous Version | Text Only | Print | Product List | Glossary Off
Versions: 1 2 3 4 5 6 7 8 9 10 11 12 13 14 15 16 17 18 19 20 21 22 23 24 25 26 27 28 29 30 31 32 33 34 35 36 37 38 39 40 41 42 43 44 45 46 47 48 49 50

000
ASUS44 KMEG 041410
RWRTN
TENNESSEE HOURLY STATE WEATHER ROUNDUP
NATIONAL WEATHER SERVICE MEMPHIS TN
800 AM CST SUN DEC 04 2016

TNZ002-004-019-021-049-052-054-088>092-041500-
WEST TENNESSEE

CITY           SKY/WX    TMP DP  RH WIND       PRES   REMARKS
MEMPHIS INTL   CLOUDY    45  44  97 E7        29.96F
NWS MEMPHIS      N/A     43 N/A N/A MISG        N/A
JACKSON        LGT RAIN  43  32  65 SE5       29.99S
DYERSBURG      CLOUDY   N/A N/A N/A E6        29.99F
UNION CITY     CLOUDY    39  39 100 CALM      30.00S
PARIS          CLOUDY    39  37  93 E7        30.00F WCI  34
HUNTINGDON     CLOUDY    43  43 100 SE6       30.00S FOG
LEXINGTON      CLOUDY    43  41  93 E5        30.00R
$$

TNZ008-025-027-028-033-062-065-066-041500-
NORTH MIDDLE TENNESSEE

CITY           SKY/WX    TMP DP  RH WIND       PRES   REMARKS
NASHVILLE      CLOUDY    43  41  93 SE8       30.06F
PORTLAND       CLOUDY    43  41  93 CALM      30.07R
CLARKSVILLE    CLOUDY    41  39  93 E9        30.03F FOG
SMYRNA         CLOUDY    43  41  93 SE5       30.08F
CROSSVILLE     CLOUDY    38  37  97 E5        30.11R WCI  34
$$

TNZ061-075-076-078-094-096-097-041500-
SOUTH MIDDLE TENNESSEE

CITY           SKY/WX    TMP DP  RH WIND       PRES   REMARKS
FAYETTEVILLE   CLOUDY    45  45 100 E6G14     30.05F FOG
TULLAHOMA      CLOUDY    43  43 100 E5        30.05F
WINCHESTER     CLOUDY    45  43  93 SE15      30.06S
MCMINNVILLE    CLOUDY    43  43 100 E3        30.08F
COLUMBIA         N/A    N/A N/A N/A E5        30.02F
SHELBYVILLE    CLOUDY    45  45 100 E5        30.06F
$$

TNZ017-018-042-046-047-041500-
NORTHEAST TENNESSEE

CITY           SKY/WX    TMP DP  RH WIND       PRES   REMARKS
TRI CITIES     LGT RAIN  38  36  92 E6        30.17F FOG     WCI  33
ELIZABETHTON   LGT RAIN  43  41  93 E6        30.16F
$$

TNZ012-013-036-069-073-074-041500-
CENTRAL EAST TENNESSEE

CITY           SKY/WX    TMP DP  RH WIND       PRES   REMARKS
KNOXVILLE      LGT RAIN  40  37  89 NE12      30.12F FOG     WCI  33
OAK RIDGE      LGT RAIN  41  38  89 NE6       30.14F FOG
DOWNTOWN KNOXV PTSUNNY   41  39  93 E5        30.14F FOG
GATLINBURG     CLOUDY    37  37 100 VRB3      30.13F
MORRISTOWN     CLOUDY    39  39 100 E5        30.14R FOG
JACKSBORO      CLOUDY    39  37  93 NE5       30.19F FOG
$$

TNZ083-085-099-041500-
SOUTHEAST TENNESSEE

CITY           SKY/WX    TMP DP  RH WIND       PRES   REMARKS
CHATTANOOGA    RAIN      43  40  89 N7        30.14S FOG
$$

SKY/WX REPORTED AS FAIR MEANS FEW OR NO CLOUDS BELOW
12 THOUSAND FEET.





USA.gov is the U.S. government's official web portal to all federal, state and local government web resources and services.